Lawrence, KS

11:23 AM CDT on September 19, 2017 (GMT -0500)
Lawrence Municipal

Weather History for KLWC - July, 2013

Change the Weather History Date:

Monday, July 15, 2013

  Actual Average Record
Temperature  
Mean Temperature 79 °F 78 °F  
Max Temperature 92 °F 90 °F 100 °F (2012)
Min Temperature 66 °F 67 °F 53 °F (2014)
Degree Days  
Heating Degree Days 0 0  
Month to date heating degree days 0 0  
Since 1 June heating degree days 13 8  
Since 1 July heating degree days 0 0  
Cooling Degree Days 14 13  
Month to date cooling degree days 205 191  
Year to date cooling degree days 644 585  
Since 1 June cooling degree days 517 466  
Growing Degree Days 28 (Base 50)    
Moisture  
Dew Point 65 °F    
Average Humidity 64    
Maximum Humidity 87    
Minimum Humidity 41    
Precipitation  
Precipitation 0.00 in 0.15 in 0.75 in (2015)
Month to date precipitation 0.22 2.38  
Year to date precipitation 15.88 21.73  
Sea Level Pressure  
Sea Level Pressure 30.12 in    
Wind  
Wind Speed 5 mph (ESE)    
Max Wind Speed 15 mph    
Max Gust Speed 20 mph    
Visibility 10 miles    
Events      
T = Trace of Precipitation, MM = Missing Value Source: NWS Daily Summary

Daily Weather History Graph

Daily Weather History Graph

Search for Another Location

Airport or City:

Trip Planner

Search our weather history database for the weather conditions in past years. The results will help you decide how hot, cold, wet, or windy it might be!

Date:

Astronomy

Jul. 15, 2013 Rise Set
Actual Time 6:07 AM CDT 8:45 PM CDT
Civil Twilight 5:36 AM CDT 9:16 PM CDT
Nautical Twilight 4:57 AM CDT 9:55 PM CDT
Astronomical Twilight 4:13 AM CDT 10:39 PM CDT
Moon 1:24 PM CDT (7/15) 12:02 AM CDT (7/15)
Length of Visible Light 15h 40m
Length of Day
14h 37m
Waxing Crescent, 45% of the Moon is Illuminated
Jul 15
Waxing Crescent
Jul 15
First Quarter
Jul 22
Full
Jul 29
Last Quarter
Aug 6
New

Hourly Weather History & Observations

Time (CDT) Temp. Heat Index Dew Point Humidity Pressure Visibility Wind Dir Wind Speed Gust Speed Precip Events Conditions
12:52 AM 75.0 °F - 60.1 °F 60% 30.10 in 10.0 mi East 5.8 mph - N/A   Clear
1:52 AM 71.1 °F - 61.0 °F 70% 30.10 in 10.0 mi ENE 3.5 mph - N/A   Clear
2:52 AM 72.0 °F - 63.0 °F 73% 30.10 in 10.0 mi ENE 3.5 mph - N/A   Clear
3:52 AM 70.0 °F - 63.0 °F 78% 30.10 in 9.0 mi NE 3.5 mph - N/A   Clear
4:52 AM 70.0 °F - 63.0 °F 78% 30.11 in 9.0 mi Calm Calm - N/A   Clear
5:52 AM 68.0 °F - 63.0 °F 84% 30.13 in 8.0 mi Calm Calm - N/A   Partly Cloudy
6:52 AM 66.0 °F - 62.1 °F 87% 30.14 in 5.0 mi Calm Calm - N/A   Clear
7:52 AM 73.0 °F - 66.0 °F 79% 30.16 in 7.0 mi ESE 3.5 mph - N/A   Clear
8:52 AM 78.1 °F - 66.9 °F 68% 30.17 in 9.0 mi SE 5.8 mph - N/A   Clear
9:52 AM 82.0 °F 84.5 °F 66.9 °F 60% 30.16 in 10.0 mi SE 4.6 mph - N/A   Clear
10:52 AM 86.0 °F 87.6 °F 64.9 °F 49% 30.16 in 10.0 mi SE 4.6 mph - N/A   Clear
11:52 AM 88.0 °F 89.6 °F 64.9 °F 46% 30.15 in 10.0 mi SE 9.2 mph - N/A   Scattered Clouds
12:52 PM 89.1 °F 90.0 °F 63.0 °F 42% 30.14 in 10.0 mi East 10.4 mph - N/A   Partly Cloudy
1:52 PM 86.0 °F 86.8 °F 63.0 °F 46% 30.13 in 10.0 mi ENE 6.9 mph - N/A   Mostly Cloudy
2:52 PM 89.1 °F 91.3 °F 66.0 °F 46% 30.12 in 10.0 mi ESE 10.4 mph - N/A   Scattered Clouds
3:52 PM 91.0 °F 93.8 °F 66.0 °F 44% 30.10 in 10.0 mi ESE 11.5 mph 19.6 mph N/A   Partly Cloudy
4:52 PM 91.9 °F 94.5 °F 66.0 °F 42% 30.09 in 10.0 mi ESE 10.4 mph - N/A   Clear
5:52 PM 91.0 °F 93.8 °F 66.0 °F 44% 30.08 in 10.0 mi ESE 6.9 mph - N/A   Scattered Clouds
6:52 PM 89.1 °F 91.0 °F 64.9 °F 45% 30.09 in 10.0 mi ESE 6.9 mph - N/A   Scattered Clouds
7:52 PM 86.0 °F 88.2 °F 66.0 °F 51% 30.09 in 10.0 mi ESE 5.8 mph - N/A   Partly Cloudy
8:52 PM 84.0 °F 86.3 °F 66.0 °F 55% 30.11 in 10.0 mi West 3.5 mph - N/A   Mostly Cloudy
9:52 PM 80.1 °F 82.1 °F 66.0 °F 62% 30.14 in 10.0 mi Calm Calm - N/A   Mostly Cloudy
10:52 PM 75.0 °F - 66.9 °F 76% 30.16 in 10.0 mi Calm Calm - N/A   Partly Cloudy
11:52 PM 72.0 °F - 66.0 °F 81% 30.17 in 10.0 mi Calm Calm - N/A   Clear